X

Important NEWS



New Hub Active

Miami is our new hub! Old members can request transfer via hr@dlxairways.net

Thank you very much and have nice flight.


Deluxe Airways.

X

Tours



Hello again, we created one nice test tour for all pilots to attend. also this is ment to be testing of our tour system

Available Tours

If you find some issues please inform us.

Thank you very much and have nice flight.


Deluxe Airways.

 METAR AND TAF INFORMATION
ArrayMETAR FOR LOWW
16412983 9 LOWW 191950Z 36004KT 7000 FEW004 SCT007 BKN011 12/11 Q1014 TEMPO 4500 BR BKN005 LOWW 2019-10-19T19:50:00Z 48.12 16.57 12.0 11.0 360 4 4.35 29.940945 MVFR METAR 190.0 LOWW 191920Z VRB02KT 7000 FEW005 BKN009 12/11 Q1014 TEMPO 4500 BR BKN004 LOWW 2019-10-19T19:20:00Z 48.12 16.57 12.0 11.0 0 2 4.35 29.940945 IFR SPECI 190.0 LOWW 191850Z 34006KT 6000 FEW005 BKN007 12/11 Q1014 NOSIG LOWW 2019-10-19T18:50:00Z 48.12 16.57 12.0 11.0 340 6 3.73 29.940945 TRUE IFR METAR 190.0 LOWW 191820Z 33007KT 6000 FEW002 SCT003 BKN006 12/11 Q1014 NOSIG LOWW 2019-10-19T18:20:00Z 48.12 16.57 12.0 11.0 330 7 3.73 29.940945 TRUE IFR METAR 190.0

 AIRPORT MAP

 RUNWAY INFORMATION
Runway 11 Runway length 11483 ft Runway width 148 ft
Runway elevation 575 ft Runway displaced threshold 0 ft Runway heading 116
Runway 29 Runway length 11483 ft Runway width 148 ft
Runway elevation 600 ft Runway displaced threshold 0 ft Runway heading 296
Runway 16 Runway length 11811 ft Runway width 148 ft
Runway elevation 597 ft Runway displaced threshold 2953 ft Runway heading 164
Runway 34 Runway length 11811 ft Runway width 148 ft
Runway elevation 586 ft Runway displaced threshold 0 ft Runway heading 344

 AIRPORT FREQUENCIES
Type APP Name WIEN RADAR Frequency 128.2 MHZ
Type ATIS Name ATIS Frequency 121.725 MHZ
Type CLD Name WIEN CLNC Frequency 122.125 MHZ
Type DIR Name DIRECTOR Frequency 119.8 MHZ
Type GND Name WIEN GND Frequency 121.6 MHZ
Type INFO Name INFO Frequency 118.525 MHZ
Type RMP Name VIENNA ICE Frequency 131.625 MHZ
Type TWR Name WIEN TWR Frequency 119.4 MHZ

 AIRPORT NEAR NAVIGATION AIDS
Type NDB Name Bruck Frequency 408 KHZ
Type VOR-DME Name Fischamend Frequency 110400 KHZ
Type VOR-DME Name Sollenau Frequency 115500 KHZ
Type NDB Name Steinhof Frequency 293 KHZ
Type VOR-DME Name Wagram Frequency 112200 KHZ
Type NDB Name Schwechat Frequency 303 KHZ



Powered by Virtual Airlines Manager [v2.6.2]

Template code change by DeluxeAir